FW0308 Weather Reports


Display with metric or nautical units.
time (UTC)temp
F
wind
direction
speed
MPH
gust
MPH
rain 1hr
in
rain 24hr
in
rain mn
in
humidity
%
barometer
mb
20260506090005 62 297 0.0 0.0 0.00 0.00 0.00 67 1008.3
20260506084504 62 288 0.0 1.0 0.00 0.00 0.00 67 1008.6
20260506083004 63 267 0.0 0.0 0.00 0.00 0.00 66 1008.6
20260506081503 63 297 0.0 0.0 0.00 0.00 0.00 65 1008.6
20260506080104 63 254 0.0 0.0 0.00 0.00 0.00 64 1008.7
20260506073056 64 220 0.0 0.0 0.00 0.00 0.00 62 1009.0
20260506071558 64 227 0.0 0.0 0.00 0.00 0.00 62 1009.0
20260506061549 64 288 0.0 0.0 0.00 0.00 0.00 60 1009.5
20260506044540 65 226 0.0 0.0 0.00 0.00 0.00 56 1009.9
20260506043044 65 238 0.0 0.0 0.00 0.00 0.00 56 1009.8
20260506041538 65 278 0.0 0.0 0.00 0.00 0.00 56 1009.9
20260506040037 65 291 0.0 0.0 0.00 0.00 0.00 57 1009.9
20260506034535 65 278 0.0 0.0 0.00 0.00 0.00 58 1010.0
20260506033034 65 324 0.0 0.0 0.00 0.00 0.00 58 1010.0
20260506031541 65 255 0.0 0.0 0.00 0.00 0.00 58 1010.0
20260506030034 65 307 0.0 0.0 0.00 0.00 0.00 56 1010.0
20260506024537 66 332 0.0 0.0 0.00 0.00 0.00 55 1010.1
20260506023051 67 306 0.0 0.0 0.00 0.00 0.00 53 1010.1
20260506021559 68 309 0.0 0.0 0.00 0.00 0.00 52 1010.2
20260506020031 69 287 0.0 0.0 0.00 0.00 0.00 51 1010.2
20260506014530 69 285 0.0 0.0 0.00 0.00 0.00 50 1010.1
20260506013034 69 294 0.0 0.0 0.00 0.00 0.00 49 1009.9
20260506011530 70 302 0.0 0.0 0.00 0.00 0.00 49 1009.8
20260506010029 71 281 0.0 0.0 0.00 0.00 0.00 48 1009.6
20260506004529 71 274 0.0 0.0 0.00 0.00 0.00 49 1009.4
20260506003028 71 244 0.0 0.0 0.00 0.00 0.00 48 1009.2
20260506001527 71 278 0.0 0.0 0.00 0.00 0.00 48 1009.1
20260506000026 71 302 0.0 0.0 0.00 0.00 0.00 47 1009.0
20260505234526 72 235 0.0 0.0 0.00 0.00 0.00 44 1008.9
20260505233027 72 235 0.0 0.0 0.00 0.00 0.00 44 1008.9
20260505231541 72 236 0.0 0.0 0.00 0.00 0.00 43 1008.9
20260505230027 73 250 0.0 0.0 0.00 0.00 0.00 43 1008.9
20260505224523 73 245 0.0 0.0 0.00 0.00 0.00 42 1008.7
20260505223022 73 258 0.0 0.0 0.00 0.00 0.00 43 1008.6
20260505221522 73 272 0.0 6.0 0.00 0.00 0.00 42 1008.6
20260505220023 74 188 0.0 6.0 0.00 0.00 0.00 42 1008.5
20260505214520 74 286 0.0 6.0 0.00 0.00 0.00 40 1008.3
20260505213028 74 276 0.0 0.0 0.00 0.00 0.00 44 1008.4
20260505211519 74 217 0.0 0.0 0.00 0.00 0.00 43 1008.4
20260505210017 75 207 0.0 4.0 0.00 0.00 0.00 39 1008.2
20260505204515 75 243 1.0 6.0 0.00 0.00 0.00 39 1007.9
20260505203022 76 292 0.0 0.0 0.00 0.00 0.00 39 1008.0
20260505201527 77 302 0.0 8.0 0.00 0.00 0.00 37 1007.9
20260505200013 79 248 1.0 5.0 0.00 0.00 0.00 36 1007.8
20260505194510 79 282 1.0 7.0 0.00 0.00 0.00 36 1007.8
20260505193009 78 319 0.0 6.0 0.00 0.00 0.00 36 1008.1
20260505191511 79 250 1.0 8.0 0.00 0.00 0.00 35 1008.3
20260505190011 78 221 0.0 7.0 0.00 0.00 0.00 36 1008.8
20260505184506 79 226 1.0 6.0 0.00 0.00 0.00 36 1008.7
20260505183006 80 240 0.0 4.0 0.00 0.00 0.00 35 1009.1
20260505181600 80 264 1.0 6.0 0.00 0.00 0.00 35 1008.8
20260505174604 80 307 0.0 8.0 0.00 0.00 0.00 35 1009.1
20260505173058 79 316 0.0 3.0 0.00 0.00 0.00 38 1009.2
20260505171553 79 231 0.0 7.0 0.00 0.00 0.00 38 1009.3
20260505170106 79 307 0.0 5.0 0.00 0.00 0.00 37 1009.3
20260505164550 78 290 0.0 9.0 0.00 0.00 0.00 41 1009.7
20260505163045 78 236 0.0 6.0 0.00 0.00 0.00 42 1009.7
20260505161542 78 232 0.0 0.0 0.00 0.00 0.00 43 1009.9
20260505153036 76 247 1.0 7.0 0.00 0.00 0.00 45 1010.6
20260505151545 76 312 1.0 5.0 0.00 0.00 0.00 47 1010.6
20260505124503 66 288 0.0 0.0 0.00 0.00 0.00 59 1011.4
20260505123104 65 266 0.0 1.0 0.00 0.00 0.00 60 1011.2
20260505121625 63 260 0.0 0.0 0.00 0.00 0.00 62 1011.4
20260505120055 63 275 0.0 0.0 0.00 0.00 0.00 64 1011.5
20260505114551 62 240 0.0 0.0 0.00 0.00 0.00 65 1011.5
20260505113048 61 282 0.0 0.0 0.00 0.00 0.00 67 1011.3
20260505111546 59 238 0.0 0.0 0.00 0.00 0.00 71 1011.2
20260505101552 55 304 0.0 0.0 0.00 0.00 0.00 75 1011.1
20260505100041 54 120 0.0 0.0 0.00 0.00 0.00 75 1010.8
20260505094540 55 120 0.0 0.0 0.00 0.00 0.00 75 1010.9
20260505093042 55 156 0.0 0.0 0.00 0.00 0.00 75 1011.0
20260505091540 56 156 0.0 0.0 0.00 0.00 0.00 75 1011.0